CZ-4 DEB, 26756

Orbit data source: Space-Track

CZ-4 DEB, 26756 is space debris in SSO originally from a launch on Thu, 14 Oct 1999 UTC launched from the Taiyaun Space Center, China (TSC). Debris objects in space refer to the collection of defunct objects orbiting the Earth. Examples of debris include non-operational satellites, rocket bodies, and fragments generated from explosions, collisions, or faulty payload assembly.

Loading next visibility...
Identifier
26756, 1999-057MD
Orbit
SSO
Country
Flag of CNCN / PRC
Related business
Manufacturer
Unknown
Mission
Spacecraft
Bus & Motor
Unknown
Mass
Unknown
Launch date (UTC)
1999-10-14 (26 years ago)
Launch vehicle
Unknown
Launch site
Taiyaun Space Center, China (TSC)
Object type
Payload
Rocket body
Debris
Shape & HBR
Unknown shape, 0.1 m
Radar Cross Section
Small (<0.1 m²)

Expand to show TLE details & history
Last TLE update: 6 hours ago

TLE from 6 hours ago
0 CZ-4 DEB
1 26756U 99057MD  25296.57187932  .00000639  00000-0  20671-3 0  9999
2 26756  98.7308 334.6444 0082656  63.6670 297.2977 14.40615975289897
Epoch: 2025-10-23T13:43Z
TLE epoch observation values (Epoch: 2025-10-23T13:43:30.373Z)
Latitude
-0.00002°
Longitude
96.53864°
Altitude
732.743 km
Speed
7.503 km/s
True Right ascension
22h 18m 34s
True Declination
0° 00' 00"
Sunlit
Object was in full shadow at epoch
Visualization orbit readout
Latitude
Unknown
Longitude
Unknown
Altitude
Unknown
Speed
Unknown
Apparent Right ascension
Unknown
Apparent Declination
Unknown
Sunlit
N/A
Visualization observer readout
Local Sidereal Time
15:00:52
Azimuth
Unknown
Elevation
Unknown
Doppler factor
Unknown
Orbital elements
Apogee altitude
812.544 km
Perigee altitude
694.648 km
Semi-major axis
7,131.733 km
Eccentricity
0.00827
Inclination
98.7308°
RAAN
334.6444°
Arg. of periapsis
63.667°
True anomaly
296.45204°
Mean anomaly
297.2977°
Eccentric anomaly
296.87527°
Mean motion
3.60372 °/min
Orbital period
99.9 mins
BSTAR
0.00020671
Loading maneuver chart data...
Computing Atmospheric mass density...

Documentation

Showing up to 5 results
|